STARLINK-31969, 59889

Orbit data source: Space-Track

STARLINK-31969, 59889 is a payload satellite owned by SpaceX/Seattle (US) in LEO that was launched on Tue, 28 May 2024 UTC via an FALCON 9 launch vehicle from the Air Force Eastern Test Range (AFETR). Payload-class satellites include a variety of spacecraft equipped with specific instruments for various scientific and technological missions. These include communications satellites like Starlink; space stations such as the ISS; scientific satellites like the Hubble; Earth observation satellites from companies like Planet Labs, Umbra, and HawkEye 360; GPS; miniature CubeSats for education and research; and military/defense satellites.

Loading next visibility...
Identifier
59889, 2024-100E
Orbit
LEO
Country
Flag of USUS
Related business
Manufacturer
SpaceX/Seattle
Mission
Operational Commercial Communications
Bus & Motor
STARLINK V2M, Unknown motor
Mass
730 kg wet, ~700 kg dry
Launch date (UTC)
2024-05-28 (2 years ago)
Launch vehicle
FALCON 9
Launch site
Air Force Eastern Test Range (AFETR)
Object type
Payload
Rocket body
Debris
Shape & HBR
Box + 2 Pan, 17.7 m
Radar Cross Section
33.884 m², Large (>1 m²)

Expand to show TLE details & history
Last TLE update: 11 hours ago

TLE from 11 hours ago
0 STARLINK-31969
1 59889U 24100E   26036.16922016 -.00000631  00000-0 -13417-4 0  9992
2 59889  42.9999 305.5713 0000471 329.4494  30.6330 15.27577237 96224
Epoch: 2026-02-05T04:03Z
TLE epoch observation values (Epoch: 2026-02-05T04:03:40.621Z)
Latitude
-0.00004°
Longitude
109.32669°
Altitude
482.555 km
Speed
7.626 km/s
True Right ascension
20h 22m 17s
True Declination
0° 00' 00"
Sunlit
Object was in daylight at epoch
Visualization orbit readout
Latitude
Unknown
Longitude
Unknown
Altitude
Unknown
Speed
Unknown
Apparent Right ascension
Unknown
Apparent Declination
Unknown
Sunlit
N/A
Visualization observer readout
Local Sidereal Time
17:14:42
Azimuth
Unknown
Elevation
Unknown
Doppler factor
Unknown
Orbital elements
Apogee altitude
485.326 km
Perigee altitude
484.679 km
Semi-major axis
6,863.14 km
Eccentricity
0.00005
Inclination
42.9999°
RAAN
305.5713°
Arg. of periapsis
329.4494°
True anomaly
30.63575°
Mean anomaly
30.633°
Eccentric anomaly
30.63438°
Mean motion
3.81732 °/min
Orbital period
94.31 mins
BSTAR
-0.000013417
Loading maneuver chart data...
Computing Atmospheric mass density...
Loading historical data...
Loading historical data...
Loading historical data...
Loading historical data...
Loading historical data...
Loading historical data...
Loading historical data...

Documentation

Showing up to 5 results
|